Location: Gro�sch�nbrunn
(49.5760°N, 11.8868°E)
Time: 11:50:01
(UTC+00:00)

Cosmos 1844 Rocket - Pass Details

Date: 18 September 2020
Orbit: 823 x 846 km, 71.0° (Epoch: 23 October)

Event Time Altitude Azimuth Distance (km) Brightness Sun altitude
Rises 19:39:25 0° 206° (SSW) 3,347 5.8 -22.5°
Reaches altitude 10° 19:41:50 10° 207° (SSW) 2,419 5.0 -22.8°
Maximum altitude 19:47:23 90° 115° (ESE) 834 2.5 -23.6°
Drops below altitude 10° 19:53:00 10° 29° (NNE) 2,446 5.2 -24.3°
Sets 19:55:27 0° 29° (NNE) 3,387 5.9 -24.6°
